Helena, Arkansas, United States (72342)
Lat: 34.53N, Lon: 90.59W
Wx Zone: ARZ058
Local Info
Past Weather Observations for Thursday, March 26, 2015

NOTE: This archive is for the closest National Weather Service station to Helena. Information may differ from the station used for current weather conditions.

Click here for Long-term Archive

Time Weather Temperature Dewpoint Humidity Pressure Winds Precip Visibility
23:55
Clear
39°F / 4°C 36°F / 2°C 87% 30.06 in
(1018 mb)
NNE 3.5 mph
(NNE 6 kph)
- 10SM
23:35
Clear
41°F / 5°C 37°F / 3°C 87% 30.09 in
(1019 mb)
NNE 3.5 mph
(NNE 6 kph)
- 10SM
23:15
Clear
39°F / 4°C 36°F / 2°C 87% 30.09 in
(1019 mb)
N 3.5 mph
(N 6 kph)
- 10SM
22:55
Clear
41°F / 5°C 37°F / 3°C 87% 30.09 in
(1019 mb)
N 3.5 mph
(N 6 kph)
- 10SM
22:35
Clear
41°F / 5°C 37°F / 3°C 87% 30.09 in
(1019 mb)
N 3.5 mph
(N 6 kph)
- 10SM
22:15
Clear
41°F / 5°C 37°F / 3°C 87% 30.09 in
(1019 mb)
NNE 3.5 mph
(NNE 6 kph)
- 10SM
21:55
Clear
41°F / 5°C 37°F / 3°C 87% 30.09 in
(1019 mb)
NNE 4.6 mph
(NNE 7 kph)
- 10SM
21:35
Clear
43°F / 6°C 37°F / 3°C 81% 30.09 in
(1019 mb)
NNE 4.6 mph
(NNE 7 kph)
- 10SM
21:15
Clear
43°F / 6°C 37°F / 3°C 81% 30.09 in
(1019 mb)
N 8.1 mph
(N 13 kph)
- 10SM
20:55
Clear
43°F / 6°C 39°F / 4°C 87% 30.09 in
(1019 mb)
N 10.4 mph
(N 17 kph)
- 10SM
20:35
Clear
43°F / 6°C 39°F / 4°C 87% 30.06 in
(1018 mb)
N 9.2 mph
(N 15 kph)
- 10SM
20:15
Clear
45°F / 7°C 39°F / 4°C 81% 30.06 in
(1018 mb)
N 9.2 mph
(N 15 kph)
- 10SM
19:55
Clear
45°F / 7°C 41°F / 5°C 87% 30.06 in
(1018 mb)
N 10.4 mph
(N 17 kph)
- 10SM
19:35
Clear
45°F / 7°C 39°F / 4°C 81% 30.06 in
(1018 mb)
N 10.4 mph
(N 17 kph)
- 10SM
19:15
Partly Cloudy
45°F / 7°C 39°F / 4°C 81% 30.04 in
(1017 mb)
N 11.5 mph
(N 19 kph)
- 10SM
18:55
Overcast
46°F / 8°C 41°F / 5°C 82% 30.04 in
(1017 mb)
N 15 mph
(N 24 kph)
- 10SM
18:35
Overcast
46°F / 8°C 43°F / 6°C 87% 30.04 in
(1017 mb)
N 15 mph
(N 24 kph)
- 10SM
18:15
Overcast
46°F / 8°C 43°F / 6°C 87% 30.04 in
(1017 mb)
N 16.1 mph
(N 26 kph)
- 10SM
17:55
Overcast
46°F / 8°C 43°F / 6°C 87% 30.04 in
(1017 mb)
N 13.8 mph
(N 22 kph)
0.02 in
(0.51 mm)
10SM
17:35
Overcast
Light Rain
46°F / 8°C 45°F / 7°C 93% 30.01 in
(1016 mb)
N 17.3 mph
(N 28 kph)
0.02 in
(0.51 mm)
10SM
17:15
Overcast
Light Rain
46°F / 8°C 45°F / 7°C 93% 30.01 in
(1016 mb)
N 13.8 mph
(N 22 kph)
0.01 in
(0.25 mm)
10SM
16:55
Overcast
Light Rain
46°F / 8°C 45°F / 7°C 93% 30.01 in
(1016 mb)
N 12.7 mph
(N 20 kph)
0.07 in
(1.78 mm)
10SM
16:35
Overcast
Rain
46°F / 8°C 45°F / 7°C 93% 30.01 in
(1016 mb)
N 15 mph
(N 24 kph)
0.05 in
(1.27 mm)
5SM
16:15
Mostly Cloudy
Drizzle
46°F / 8°C 45°F / 7°C 93% 30.01 in
(1016 mb)
N 12.7 mph
(N 20 kph)
- 10SM
15:55
Partly Cloudy
46°F / 8°C 43°F / 6°C 87% 30.01 in
(1016 mb)
N 18.4 mph
(N 30 kph)
- 10SM
15:35
Partly Cloudy
48°F / 9°C 45°F / 7°C 87% 30.01 in
(1016 mb)
N 17.3 mph
(N 28 kph)
- 10SM
15:15
Mostly Cloudy
48°F / 9°C 45°F / 7°C 87% 30.01 in
(1016 mb)
N 15 mph
(N 24 kph)
- 10SM
14:55
Mostly Cloudy
46°F / 8°C 43°F / 6°C 87% 30.01 in
(1016 mb)
N 17.3 mph
(N 28 kph)
- 10SM
14:35
Overcast
Light Rain
46°F / 8°C 45°F / 7°C 93% 30.01 in
(1016 mb)
N 21.9 mph
(N 35 kph)
- 10SM
14:15
Overcast
46°F / 8°C 45°F / 7°C 93% 30.01 in
(1016 mb)
N 18.4 mph
(N 30 kph)
- 10SM
13:55
Overcast
Rain
46°F / 8°C 45°F / 7°C 93% 29.98 in
(1015 mb)
N 18.4 mph
(N 30 kph)
0.04 in
(1.02 mm)
4SM
13:35
Overcast
Rain
46°F / 8°C 45°F / 7°C 93% 30.01 in
(1016 mb)
N 21.9 mph
(N 35 kph)
0.02 in
(0.51 mm)
5SM
13:15
Mostly Cloudy
Light Rain
48°F / 9°C 45°F / 7°C 87% 30.01 in
(1016 mb)
N 20.7 mph
(N 33 kph)
- 10SM
12:55
Overcast
Fog And Mist
48°F / 9°C 45°F / 7°C 87% 30.01 in
(1016 mb)
N 23 mph
(N 37 kph)
- 5SM
12:35
Overcast
48°F / 9°C 46°F / 8°C 94% 30.01 in
(1016 mb)
N 23 mph
(N 37 kph)
- 7SM
12:15
Overcast
Light Rain
48°F / 9°C 46°F / 8°C 94% 29.98 in
(1015 mb)
N 24.2 mph
(N 39 kph)
- 3SM
11:55
Overcast
Fog And Mist
50°F / 10°C 46°F / 8°C 88% 29.98 in
(1015 mb)
N 23 mph
(N 37 kph)
- 3SM
11:35
Overcast
52°F / 11°C 46°F / 8°C 82% 29.98 in
(1015 mb)
NNW 25.3 mph
(NNW 41 kph)
- 10SM
11:15
Overcast
52°F / 11°C 48°F / 9°C 88% 29.95 in
(1014 mb)
N 26.5 mph
(N 43 kph)
- 10SM
10:55
Overcast
52°F / 11°C 50°F / 10°C 94% 29.95 in
(1014 mb)
N 24.2 mph
(N 39 kph)
- 10SM
10:35
Overcast
54°F / 12°C 50°F / 10°C 88% 29.95 in
(1014 mb)
N 21.9 mph
(N 35 kph)
- 10SM
10:15
Overcast
55°F / 13°C 52°F / 11°C 88% 29.95 in
(1014 mb)
NNW 20.7 mph
(NNW 33 kph)
- 10SM
09:55
Mostly Cloudy
64°F / 18°C 54°F / 12°C 68% 29.92 in
(1013 mb)
NW 11.5 mph
(NW 19 kph)
- 10SM
09:35
Mostly Cloudy
66°F / 19°C 54°F / 12°C 64% 29.92 in
(1013 mb)
NW 8.1 mph
(NW 13 kph)
- 10SM
09:15
Partly Cloudy
66°F / 19°C 57°F / 14°C 73% 29.92 in
(1013 mb)
WNW 5.8 mph
(WNW 9 kph)
- 10SM
08:55
Partly Cloudy
64°F / 18°C 55°F / 13°C 73% 29.92 in
(1013 mb)
SSW 3.5 mph
(SSW 6 kph)
- 10SM
08:35
Clear
64°F / 18°C 57°F / 14°C 78% 29.89 in
(1012 mb)
Calm - 10SM
08:15
Clear
63°F / 17°C 59°F / 15°C 88% 29.89 in
(1012 mb)
SSE 4.6 mph
(SSE 7 kph)
- 10SM
07:55
Partly Cloudy
61°F / 16°C 59°F / 15°C 94% 29.86 in
(1011 mb)
ESE 9.2 mph
(ESE 15 kph)
0.02 in
(0.51 mm)
10SM
07:35
Overcast
Rain
59°F / 15°C 57°F / 14°C 94% 29.92 in
(1013 mb)
SE 5.8 mph
(SE 9 kph)
0.02 in
(0.51 mm)
5SM
07:15
Overcast
Rain
59°F / 15°C 57°F / 14°C 94% 29.92 in
(1013 mb)
Calm 0.01 in
(0.25 mm)
7SM
06:55
Partly Cloudy
Light Rain
61°F / 16°C 57°F / 14°C 88% 29.95 in
(1014 mb)
SW 3.5 mph
(SW 6 kph)
- 10SM
06:35
Partly Cloudy
59°F / 15°C 57°F / 14°C 94% 29.95 in
(1014 mb)
Calm - 10SM
06:15
Partly Cloudy
59°F / 15°C 55°F / 13°C 88% 29.95 in
(1014 mb)
Calm - 10SM
05:55
Partly Cloudy
61°F / 16°C 57°F / 14°C 88% 29.92 in
(1013 mb)
Calm - 10SM
05:35
Mostly Cloudy
61°F / 16°C 57°F / 14°C 88% 29.92 in
(1013 mb)
Calm - 10SM
05:15
Overcast
61°F / 16°C 55°F / 13°C 83% 29.92 in
(1013 mb)
N 3.5 mph
(N 6 kph)
- 10SM
04:55
Overcast
61°F / 16°C 57°F / 14°C 88% 29.92 in
(1013 mb)
NNW 8.1 mph
(NNW 13 kph)
- 10SM
04:35
Overcast
Light Rain
63°F / 17°C 57°F / 14°C 83% 29.92 in
(1013 mb)
NW 8.1 mph
(NW 13 kph)
- 10SM
04:15
Overcast
Rain
63°F / 17°C 57°F / 14°C 83% 29.92 in
(1013 mb)
SSW 8.1 mph
(SSW 13 kph)
- 10SM
03:55
Overcast
63°F / 17°C 55°F / 13°C 77% 29.89 in
(1012 mb)
SW 9.2 mph
(SW 15 kph)
- 10SM
03:35
Overcast
63°F / 17°C 55°F / 13°C 77% 29.89 in
(1012 mb)
S 9.2 mph
(S 15 kph)
- 10SM
03:15
Overcast
63°F / 17°C 57°F / 14°C 83% 29.89 in
(1012 mb)
SSE 6.9 mph
(SSE 11 kph)
- 10SM
02:55
Mostly Cloudy
63°F / 17°C 57°F / 14°C 83% 29.89 in
(1012 mb)
SSE 9.2 mph
(SSE 15 kph)
- 10SM
02:35
Partly Cloudy
59°F / 15°C 55°F / 13°C 88% 29.89 in
(1012 mb)
S 8.1 mph
(S 13 kph)
- 10SM
02:15
Mostly Cloudy
59°F / 15°C 55°F / 13°C 88% 29.89 in
(1012 mb)
S 6.9 mph
(S 11 kph)
- 10SM
01:55
Partly Cloudy
59°F / 15°C 55°F / 13°C 88% 29.92 in
(1013 mb)
S 5.8 mph
(S 9 kph)
- 10SM
01:35
Partly Cloudy
59°F / 15°C 55°F / 13°C 88% 29.92 in
(1013 mb)
S 3.5 mph
(S 6 kph)
- 10SM
01:15
Partly Cloudy
61°F / 16°C 55°F / 13°C 83% 29.92 in
(1013 mb)
Calm - 10SM
00:55
Clear
61°F / 16°C 55°F / 13°C 83% 29.92 in
(1013 mb)
W 5.8 mph
(W 9 kph)
- 10SM
00:35
Clear
61°F / 16°C 55°F / 13°C 83% 29.89 in
(1012 mb)
S 6.9 mph
(S 11 kph)
- 10SM
00:15
Clear
61°F / 16°C 55°F / 13°C 83% 29.89 in
(1012 mb)
S 9.2 mph
(S 15 kph)
- 10SM
Time Weather Temperature Dewpoint Humidity Pressure Winds Precip Visibility


Weather for websites

WeatherForYou.com, LLC is not responsible for any damages or problems caused by this service. Current weather conditions are obtained from the closest station including government and personal stations which may have varying degrees of accuracy. Weather forecasts are derived from the NOAA NDFD. Like all things, this site belongs to Jesus Christ... He just trusts me to maintain it. If you have any questions or comments email webmaster@weatherforyou.com

Copyright © 2015, WeatherForYou.com LLC. All rights reserved.